Weather History for Alpine, TX

Change the Weather History Date:

Monday, July 8, 2013

  Actual Average (KMRF) Record (KMRF)
Temperature  
Mean Temperature 78 °F -  
Max Temperature 90 °F 85 °F 95 °F (1998)
Min Temperature 68 °F 59 °F 55 °F (2014)
Cooling Degree Days 14    
Growing Degree Days 28 (Base 50)    
Moisture  
Dew Point 58 °F    
Average Humidity 52    
Maximum Humidity 70    
Minimum Humidity 30    
Precipitation  
Precipitation 0.00 in - - ()
Sea Level Pressure  
Sea Level Pressure 30.20 in    
Wind  
Wind Speed 6 mph (SE)    
Max Wind Speed 21 mph    
Max Gust Speed 28 mph    
Visibility 10 miles    
Events      
Averages and records for this station are not official NWS values.
T = Trace of Precipitation, MM = Missing Value Source: NWS Daily Summary

Daily Weather History Graph

Daily Weather History Graph

Search for Another Location

Airport:

Trip Planner

Search our weather history database for the weather conditions in past years. The results will help you decide how hot, cold, wet, or windy it might be!

Date:

Astronomy

Jul. 08, 2013 Rise Set
Actual Time 6:59 AM CDT 9:00 PM CDT
Civil Twilight 6:32 AM CDT 9:27 PM CDT
Nautical Twilight 5:59 AM CDT 10:00 PM CDT
Astronomical Twilight 5:23 AM CDT 10:35 PM CDT
Moon 7:24 AM CDT (7/8) 9:11 PM CDT (7/8)
Length of Visible Light 14h 55m
Length of Day
14h 00m
New Moon, 0% of the Moon is Illuminated
Jul 8
New Moon
Jul 15
First Quarter
Jul 22
Full
Jul 29
Last Quarter
Aug 6
New

Hourly Weather History & Observations

Time (CDT) Temp. Heat Index Dew Point Humidity Pressure Visibility Wind Dir Wind Speed Gust Speed Precip Events Conditions
12:15 AM 74.3 °F - 57.2 °F 55% 30.17 in 10.0 mi SE 6.9 mph - N/A   Clear
12:35 AM 73.9 °F - 57.4 °F 56% 30.17 in 10.0 mi Calm Calm - N/A   Clear
12:55 AM 73.4 °F - 57.6 °F 58% 30.17 in 10.0 mi SSE 4.6 mph - N/A   Clear
1:15 AM 73.0 °F - 57.9 °F 59% 30.17 in 10.0 mi Calm Calm - N/A   Clear
1:35 AM 72.0 °F - 58.1 °F 62% 30.16 in 10.0 mi SE 5.8 mph - N/A   Clear
1:55 AM 72.1 °F - 58.3 °F 62% 30.16 in 10.0 mi SE 8.1 mph - N/A   Clear
2:15 AM 71.6 °F - 58.1 °F 62% 30.16 in 10.0 mi SE 3.5 mph - N/A   Clear
2:35 AM 71.6 °F - 58.1 °F 62% 30.16 in 10.0 mi SSE 4.6 mph - N/A   Clear
2:55 AM 70.3 °F - 57.6 °F 64% 30.16 in 10.0 mi SE 3.5 mph - N/A   Clear
3:15 AM 72.0 °F - 57.7 °F 61% 30.16 in 10.0 mi SSE 4.6 mph - N/A   Clear
3:35 AM 71.6 °F - 57.6 °F 61% 30.16 in 10.0 mi SSW 3.5 mph - N/A   Clear
3:55 AM 72.0 °F - 57.6 °F 60% 30.17 in 10.0 mi Calm Calm - N/A   Clear
4:15 AM 68.9 °F - 57.2 °F 66% 30.17 in 10.0 mi Calm Calm - N/A   Clear
4:35 AM 69.8 °F - 57.6 °F 65% 30.17 in 10.0 mi Calm Calm - N/A   Clear
4:55 AM 70.5 °F - 57.7 °F 64% 30.17 in 10.0 mi Calm Calm - N/A   Clear
5:15 AM 69.3 °F - 57.4 °F 66% 30.18 in 10.0 mi Calm Calm - N/A   Clear
5:55 AM 70.3 °F - 58.3 °F 66% 30.19 in 10.0 mi SSE 4.6 mph - N/A   Clear
6:15 AM 70.3 °F - 58.5 °F 66% 30.19 in 10.0 mi South 4.6 mph - N/A   Clear
6:35 AM 69.8 °F - 58.5 °F 67% 30.19 in 10.0 mi SSW 4.6 mph - N/A   Clear
6:55 AM 70.0 °F - 58.5 °F 67% 30.20 in 10.0 mi South 3.5 mph - N/A   Clear
7:15 AM 68.5 °F - 58.3 °F 70% 30.21 in 7.0 mi South 5.8 mph - N/A   Clear
7:35 AM 69.1 °F - 58.6 °F 69% 30.22 in 10.0 mi Calm Calm - N/A   Clear
7:55 AM 70.7 °F - 59.2 °F 67% 30.22 in 10.0 mi Calm Calm - N/A   Clear
8:15 AM 72.0 °F - 59.2 °F 64% 30.23 in 10.0 mi West 3.5 mph - N/A   Clear
8:35 AM 72.9 °F - 59.5 °F 63% 30.24 in 10.0 mi Calm Calm - N/A   Clear
8:55 AM 73.9 °F - 59.9 °F 61% 30.24 in 10.0 mi Calm Calm - N/A   Clear
9:15 AM 74.5 °F - 59.5 °F 60% 30.25 in 10.0 mi East 4.6 mph - N/A   Clear
9:35 AM 75.9 °F - 59.9 °F 57% 30.24 in 10.0 mi West 3.5 mph - N/A   Clear
9:55 AM 76.8 °F - 59.5 °F 55% 30.24 in 10.0 mi SSW 3.5 mph - N/A   Clear
10:15 AM 78.6 °F - 59.4 °F 51% 30.25 in 10.0 mi ESE 5.8 mph - N/A   Clear
10:35 AM 78.4 °F - 59.4 °F 52% 30.25 in 10.0 mi SSE 5.8 mph - N/A   Scattered Clouds
10:55 AM 79.0 °F - 57.7 °F 48% 30.26 in 10.0 mi South 6.9 mph - N/A   Mostly Cloudy
11:15 AM 78.6 °F - 57.9 °F 49% 30.25 in 10.0 mi South 6.9 mph - N/A   Overcast
11:35 AM 79.0 °F - 58.5 °F 49% 30.25 in 10.0 mi SW 6.9 mph - N/A   Overcast
11:55 AM 79.3 °F - 58.3 °F 48% 30.26 in 10.0 mi SSW 4.6 mph - N/A   Overcast
12:15 PM 80.4 °F 80.9 °F 58.3 °F 47% 30.25 in 10.0 mi South 4.6 mph - N/A   Overcast
12:35 PM 83.7 °F 83.0 °F 57.0 °F 40% 30.25 in 10.0 mi ESE 5.8 mph - N/A   Scattered Clouds
12:55 PM 84.0 °F 83.2 °F 56.7 °F 39% 30.24 in 10.0 mi ESE 8.1 mph - N/A   Clear
1:15 PM 85.8 °F 84.5 °F 55.9 °F 36% 30.24 in 10.0 mi ENE 8.1 mph - N/A   Scattered Clouds
1:35 PM 85.8 °F 84.3 °F 55.0 °F 35% 30.24 in 10.0 mi East 9.2 mph - N/A   Scattered Clouds
1:55 PM 84.9 °F 83.6 °F 55.2 °F 36% 30.23 in 10.0 mi SE 6.9 mph - N/A   Mostly Cloudy
2:15 PM 82.9 °F 82.3 °F 56.5 °F 40% 30.22 in 10.0 mi Calm Calm - N/A   Mostly Cloudy
2:35 PM 84.6 °F 83.5 °F 56.1 °F 38% 30.21 in 10.0 mi SE 9.2 mph - N/A   Mostly Cloudy
2:55 PM 86.5 °F 85.1 °F 56.1 °F 35% 30.21 in 10.0 mi ESE 13.8 mph 18.4 mph N/A   Scattered Clouds
3:15 PM 88.0 °F 86.5 °F 56.7 °F 34% 30.20 in 10.0 mi East 13.8 mph 18.4 mph N/A   Scattered Clouds
3:35 PM 88.0 °F 86.3 °F 55.8 °F 33% 30.20 in 10.0 mi ESE 12.7 mph 18.4 mph N/A   Clear
3:55 PM 87.8 °F 86.1 °F 55.0 °F 33% 30.20 in 10.0 mi East 6.9 mph 17.3 mph N/A   Clear
4:15 PM 88.2 °F 86.3 °F 55.2 °F 32% 30.19 in 10.0 mi East 10.4 mph 16.1 mph N/A   Clear
4:35 PM 89.1 °F 87.3 °F 55.6 °F 32% 30.19 in 10.0 mi SE 8.1 mph 16.1 mph N/A   Scattered Clouds
5:35 PM 88.7 °F 86.5 °F 53.6 °F 30% 30.17 in 10.0 mi SE 8.1 mph - N/A   Clear
6:15 PM 89.1 °F 87.1 °F 54.9 °F 31% 30.17 in 10.0 mi ESE 12.7 mph 18.4 mph N/A   Clear
6:35 PM 87.1 °F 85.3 °F 54.7 °F 33% 30.16 in 10.0 mi SE 12.7 mph 20.7 mph N/A   Clear
6:55 PM 86.4 °F 84.7 °F 54.7 °F 34% 30.16 in 10.0 mi ESE 17.3 mph 23.0 mph N/A   Clear
7:15 PM 83.3 °F 82.6 °F 56.3 °F 40% 30.17 in 10.0 mi ESE 13.8 mph 24.2 mph N/A   Clear
7:35 PM 84.2 °F 83.0 °F 55.4 °F 37% 30.17 in 10.0 mi SE 18.4 mph 21.9 mph N/A   Clear
7:55 PM 82.6 °F 81.8 °F 55.4 °F 39% 30.17 in 10.0 mi ESE 16.1 mph - N/A   Clear
8:15 PM 81.3 °F 81.0 °F 55.6 °F 41% 30.17 in 10.0 mi ESE 18.4 mph 27.6 mph N/A   Clear
8:35 PM 79.7 °F - 58.1 °F 47% 30.17 in 10.0 mi ESE 20.7 mph 25.3 mph N/A   Clear
8:55 PM 78.6 °F - 59.4 °F 51% 30.19 in 10.0 mi ESE 16.1 mph 21.9 mph N/A   Clear
9:15 PM 77.7 °F - 60.1 °F 54% 30.19 in 10.0 mi SE 12.7 mph 20.7 mph N/A   Clear
9:35 PM 77.0 °F - 60.8 °F 57% 30.20 in 10.0 mi ESE 8.1 mph - N/A   Clear
9:55 PM 77.0 °F - 61.0 °F 58% 30.21 in 10.0 mi ESE 13.8 mph - N/A   Clear
10:15 PM 76.1 °F - 61.0 °F 59% 30.23 in 10.0 mi ESE 10.4 mph - N/A   Clear
10:35 PM 75.7 °F - 60.8 °F 60% 30.24 in 10.0 mi SSE 8.1 mph 17.3 mph N/A   Clear
10:55 PM 75.2 °F - 60.8 °F 61% 30.25 in 10.0 mi SSE 12.7 mph 17.3 mph N/A   Clear
11:15 PM 75.0 °F - 60.6 °F 61% 30.25 in 10.0 mi SE 15.0 mph 18.4 mph N/A   Clear
11:35 PM 74.5 °F - 59.9 °F 60% 30.25 in 10.0 mi SE 10.4 mph 17.3 mph N/A   Clear
11:55 PM 74.3 °F - 59.5 °F 60% 30.25 in 10.0 mi SSE 10.4 mph - N/A   Clear